Texas Shootout - LOFT SETTLING AND FLYING

Station: LOFT CHECK - T Race

Distance: 1 Miles    

Release: 10-Jun-2021 08:00

Weather Release:    Arrival:

Wind at Release:     Wind at Arrival:

Temp at Release: °    Temp at Arrival: °

Lofts: 54

Birds: 271

Clocked: 184

NOT COUNTING BIRDS FROM THIS WEEK AND LAST (ABOUT 80-85)
Drops Pos Breeder Pigeon Name Color Sex Ent Arrival Speed To Win Elg Pd
1 Two-Be-Won - NV 21010-AU21-TBW 490-109936 BB C 1 09:29:08.70 19.743 00:00:00 Yes
2 H & H Loft - TX 4347-AU21-VITA BB H 1 09:29:10.80 19.735 00:00:02 Yes
3 Hi-Cal Connection - CA 0757-AU21-SD DC H 1 09:29:26.70 19.677 00:00:18 Yes
4 Bad Company - OK 0129-AU21-TULS BB H 1 09:29:28.60 19.670 00:00:20 Yes
5 Johnson / Perron - LA 0661-AU21-LAF BC H 1 09:29:33.50 19.652 00:00:25 Yes
6 Patrick Kwan - CA 2185-AU21-KWAN BC C 1 09:29:47.00 19.603 00:00:38 Yes
7 Wartick Family Loft - KS 9519-AU21-ARPU BBWF H 1 09:29:50.00 19.592 00:00:41 Yes
8 Wartick Family Loft - KS 9527-AU21-ARPU BB H 2 09:29:52.90 19.581 00:00:44 Yes
9 Crestview Loft - TX 21761-AU21-CRES BB H 1 09:29:58.30 19.562 00:00:49 Yes
10 Callahan Loft - MO 0310-AU21-AA BB C 1 09:30:04.30 19.540 00:00:56 Yes
11 Gold Star Loft - CA 1881-AU21-STON BC H 1 09:30:04.80 19.538 00:00:56 Yes
12 Jojos International - TX 6275-AU21-GJOJ BB C 1 09:30:07.20 19.530 00:00:58 Yes
13 The Red Dirt Gang - OK 29645-AU21-FOYS BBWF C 1 09:30:13.80 19.506 00:01:05 Yes
14 The New Orleans Boys - LA 21179-AU21-MET DC H 1 09:30:16.50 19.496 00:01:08 Yes
15 Jojos International - TX 6212-AU21-GJOJ BB H 2 09:30:23.10 19.472 00:01:14 Yes
16 The Red Dirt Gang - OK 29646-AU21-FOYS BB H 2 09:30:34.10 19.433 00:01:25 Yes
17 Corso & Jean - LA 81385-AU21-ARPU BSPL H 1 09:31:09.10 19.308 00:02:01 Yes
18 Zong Jing Tang - FL 11875-AU21-GHC BC C 1 09:31:49.40 19.167 00:02:41 Yes
19 Sky Dancer Loft - TX 0777-AU21-WWC BC H 1 09:31:54.90 19.148 00:02:46 Yes
20 Wood Loft - TX 0780-AU21-DENT BB C 1 09:32:07.20 19.106 00:02:58 Yes
21 The New Orleans Boys - LA 21125-AU21-MET HERCULES SLWF C 2 09:32:11.70 19.090 00:03:03 Yes
22 H & H Loft - TX 4362-AU21-VITA BBPD H 2 09:32:15.80 19.076 00:03:07 Yes
23 Jojos International - TX 6257-AU21-GJOJ BB C 3 09:32:18.00 19.068 00:03:09 Yes
23 Rick Smith - TX 2162-AU21-SMIT BB C 1 09:32:18.00 19.068 00:03:09 Yes
25 Tx Lin Loft - TX 26633-AU21-AA BC H 1 09:32:18.50 19.067 00:03:10 Yes
26 English Syndicate - UK 19460-GB21-E BWFP C 1 09:32:19.50 19.063 00:03:11 Yes
27 Dolly's Loft - TX 21751-AU21-CRES BB C 1 09:32:22.40 19.053 00:03:14 Yes
28 Team Taylor's & Berry's - TX 3182-AU21-TEXA BB C 1 09:32:23.10 19.051 00:03:14 Yes
29 Blue Dog Express - TX 0463-AU21-DENT BB C 1 09:32:25.80 19.041 00:03:17 Yes
30 Wood Loft - TX 0772-AU21-DENT BC C 2 09:32:40.00 18.993 00:03:31 Yes
31 Crestview Loft - TX 21768-AU21-CRES BB H 2 09:32:41.40 18.988 00:03:33 Yes
32 Westfall/Lindsay - MO 0111-AU21-WMW BB H 1 09:32:44.10 18.979 00:03:35 Yes
33 Nestle Loft - TX 30248-AU21-AA BBPD H 1 09:33:00.80 18.922 00:03:52 Yes
34 Hollywood Honey - CA 0731-AU21-SD BB C 1 09:33:05.90 18.905 00:03:57 Yes
35 Dolly's Loft - TX 21765-AU21-CRES BB C 2 09:33:06.60 18.902 00:03:58 Yes
36 Team Taylor's & Berry's - TX 3118-AU21-TEX BC C 2 09:33:10.00 18.891 00:04:01 Yes
37 Bad Company - OK 0133-AU21-TULS BB H 2 09:33:11.90 18.884 00:04:03 Yes
38 English Syndicate - UK 19456-GB21-E BC C 2 09:33:17.40 18.866 00:04:09 Yes
39 Patrick Kwan - CA 2177-AU21-KWAN DCPD H 2 09:33:20.20 18.856 00:04:12 Yes
40 H & H Loft - TX 4366-AU21-VITA BB C 3 09:33:23.10 18.847 00:04:14 Yes
41 Corso & Jean - LA 81347-AU21-ARPU BBWF C 2 09:33:23.50 18.845 00:04:15 Yes
42 Crestview Loft - TX 21767-AU21-CRES BB C 3 09:33:28.10 18.830 00:04:19 Yes
43 Baudy Loft - LA 21182-AU21-MET BB C 1 09:33:30.00 18.824 00:04:21 Yes
44 Wartick Family Loft - KS 9518-AU21-ARPU BWFP H 3 09:33:33.80 18.811 00:04:25 Yes
45 H & H Loft - TX 4302-AU21-VITA BBWF H 4 09:33:36.30 18.802 00:04:28 Yes
46 Nestle Loft - TX 30249-AU21-AA DCSP H 2 09:33:37.80 18.797 00:04:29 Yes
46 Kibria Rpl - TX 0827-AU21-WWC Vk 118 X 4404 BB C 1 09:33:38.00 18.797 00:04:29 Yes
48 The Red Dirt Gang - OK 10202-AU21-FOYS BB H 3 09:33:38.50 18.795 00:04:30 Yes
49 B S B Loft - OK 10205-AU21-FOYS BC H 1 09:33:40.10 18.790 00:04:31 Yes
50 Nestle Loft - TX 30241-AU21-AA BCWF H 3 09:33:40.60 18.788 00:04:32 Yes
51 Flying D Loft - TX 1421-AU21-FLYN BBWF H 1 09:33:41.00 18.787 00:04:32 Yes
52 Hollywood Honey - CA 0748-AU21-SD BBWF H 2 09:33:41.70 18.784 00:04:33 Yes
53 Dolly's Loft - TX 21774-AU21-CRES BB C 3 09:33:42.40 18.782 00:04:34 Yes
54 Rick Smith - TX 2160-AU21-SMIT BB C 2 09:33:47.20 18.766 00:04:38 Yes
55 Kibria Rpl - TX 0787-AU21-NTF 2190 X 1027 BC C 2 09:33:47.60 18.765 00:04:39 Yes
56 Rick Smith - TX 2177-AU21-SMIT BCSP H 3 09:33:49.90 18.757 00:04:41 Yes
57 Wartick Family Loft - KS 9505-AU21-ARPU BB H 4 09:33:50.20 18.756 00:04:41 Yes
58 Timberline Speed Loft - TX 81214-AU21-ARPU BB C 1 09:33:51.30 18.752 00:04:43 Yes
59 Baudy Loft - LA 0136-AU21-DELT BCPD H 2 09:33:54.30 18.742 00:04:46 Yes
60 Pacos Lofts - CA 0163-AU21-PACO BB C 1 09:34:11.40 18.686 00:05:03 Yes
61 Bill Kluge - TX 1002-AU21-COLD 6 BB C 1 09:34:26.30 18.637 00:05:17 Yes
62 Westfall/Lindsay - MO 0128-AU21-WMW WHT H 2 09:34:28.10 18.631 00:05:19 Yes
63 Dea Loft - AZ 0043-AU21-DEA BBWF H 1 09:34:30.50 18.623 00:05:22 Yes
64 Dolly's Loft - TX 21766-AU21-CRES BB H 4 09:34:33.10 18.614 00:05:24 Yes
65 Wolf Pac - TX 0446-AU21-DENT BC C 1 09:34:34.20 18.611 00:05:25 Yes
66 Hillbilly Loft - TX 2238-AU21-AA be. 6235743 x 1012 BB C 1 09:34:34.60 18.609 00:05:26 Yes
67 Dea Loft - AZ 0032-AU21-DEA BC C 2 09:34:36.40 18.603 00:05:28 Yes
68 Sky Dancer Loft - TX 0773-AU21-WWC BC H 2 09:34:37.70 18.599 00:05:29 Yes
69 Rick Smith - TX 2166-AU21-SMIT GRIZ H 4 09:34:38.60 18.596 00:05:30 Yes
70 Bill Kluge - TX 1036-AU21-COLD 21 DB C 2 09:34:40.10 18.591 00:05:31 Yes
71 Wartick Family Loft - KS 9529-AU21-ARPU BC H 5 09:34:42.90 18.582 00:05:34 Yes
72 The Red Dirt Gang - OK 10201-AU21-FOYS BB C 4 09:34:43.30 18.581 00:05:34 Yes
73 Baudy Loft - LA 21197-AU21-MET BB C 3 09:34:45.00 18.575 00:05:36 Yes
74 H & H Loft - TX 4368-AU21-VITA BB H 5 09:34:45.40 18.574 00:05:37 Yes
75 Larry Payne - TX 0627-AU21-LPL BB H 1 09:34:46.60 18.570 00:05:38 Yes
76 Nestle Loft - TX 30250-AU21-AA PNSP H 4 09:34:47.70 18.566 00:05:39 Yes
77 Hi-Cal Connection - CA 0741-AU21-SD BB H 2 09:34:49.10 18.562 00:05:40 Yes
78 Gold Star Loft - CA 1899-AU21-STON BC H 2 09:35:00.20 18.526 00:05:51 Yes
79 Blue Dog Express - TX 0468-AU21-DENT BB C 2 09:35:01.40 18.522 00:05:53 Yes
80 Two-Be-Won - NV 21056-AU21-TBW 18061-18058 BB C 2 09:35:01.60 18.521 00:05:53 Yes
81 Wartick Family Loft - KS 9528-AU21-ARPU BB C 6 09:35:04.00 18.513 00:05:55 Yes
82 Hollywood Honey - CA 0736-AU21-SD BC H 3 09:35:08.10 18.500 00:05:59 Yes
83 Hollywood Honey - CA 0718-AU21-SD BB C 4 09:35:13.10 18.484 00:06:04 Yes
84 Gossett & Son - TX 0109-AU21-GOSS BB H 1 09:35:17.40 18.470 00:06:09 Yes
85 The New Orleans Boys - LA 21185-AU21-MET BBWF H 3 09:35:20.60 18.460 00:06:12 Yes
86 Rick Smith - TX 2167-AU21-SMIT DGRZ C 5 09:35:29.40 18.431 00:06:21 Yes
87 Westfall/Lindsay - MO 0130-AU21-WMW BB H 3 09:35:32.50 18.421 00:06:24 Yes
88 Flying D Loft - TX 1418-AU21-FLYN BB H 2 09:35:36.50 18.408 00:06:28 Yes
89 Zong Jing Tang - FL 57874-AU21-ARPU BB C 2 09:35:38.30 18.403 00:06:29 Yes
90 Bad Company - OK 0143-AU21-TULS BBWF H 3 09:35:45.40 18.380 00:06:37 Yes
91 Siegel's - LA 21429-AU21-A BB H 1 09:35:49.20 18.368 00:06:40 Yes
92 Larry Payne - TX 0630-AU21-LPL BB C 2 09:35:49.90 18.366 00:06:41 Yes
93 Bad Company - OK 0144-AU21-TULS DBB C 4 09:35:56.00 18.346 00:06:47 Yes
94 Larry Payne - TX 0622-AU21-LPL BB C 3 09:35:58.50 18.338 00:06:50 Yes
95 Dan & Greg Coury - AZ 0865-AU21-AONE BBWF H 1 09:36:11.10 18.298 00:07:02 Yes
96 Johnson / Perron - LA 0654-AU21-LAF DC H 2 09:36:23.90 18.258 00:07:15 Yes
97 Wartick Family Loft - KS 9521-AU21-ARPU BB C 7 09:36:24.80 18.255 00:07:16 Yes
98 Two-Be-Won - NV 21067-AU21-TBW 20151-20079 BC C 3 09:36:25.90 18.251 00:07:17 Yes
99 Blue Dog Express - TX 0464-AU21-DENT BB H 3 09:36:41.10 18.203 00:07:33 Yes
100 Blue Dog Express - TX 0461-AU21-DENT BB C 4 09:36:41.90 18.201 00:07:33 Yes

There are 184 bird records

Note: These Race Results are unofficial and subject to change until verified by the Race Committee and declared final.